Location: Port-Aux-Quilles Astronomical Observatory
(47.9769°N, 69.9642°W)
Time: 20:56:31
(UTC-04:00)

N. Korean satellite - Visible Passes

Search period start: 20 September 2020 00:00
Search period end: 30 September 2020 00:00
Orbit: 455 x 503 km, 97.2° (Epoch: 20 September)

Date Brightness Start Highest point End Pass type
(mag) Time Alt. Az. Time Alt. Az. Time Alt. Az.
20 Sep 10.1 05:07:51 10° ENE 05:09:22 12° E 05:10:52 10° ESE visible
22 Sep 8.7 05:47:39 10° NNE 05:51:02 33° E 05:54:20 10° SSE visible
23 Sep 9.8 05:22:18 10° NE 05:24:50 18° E 05:27:20 10° SE visible
26 Sep 9.2 05:37:10 10° NE 05:40:16 25° E 05:43:17 10° SSE visible
27 Sep 10.0 05:12:10 10° ENE 05:14:01 13° E 05:15:51 10° ESE visible
29 Sep 8.3 05:52:12 10° NNE 05:55:38 37° E 05:58:58 10° SSE visible
